Regional Weather Roundup
Issued by NWS

Home | Current Version | Previous Version | Graphics & Text | Print | Product List | Glossary On
Versions: 1 2 3 4 5 6 7 8 9 10 11 12 13 14 15 16 17 18 19 20 21 22 23 24 25 26 27
000
ASUS45 KBOI 260110
RWRID

IDAHO REGIONAL WEATHER ROUNDUP
NATIONAL WEATHER SERVICE BOISE ID
700 PM MDT SUN JUN 25 2017

NOTE: "FAIR" INDICATES FEW OR NO CLOUDS BELOW 12000 FEET
WITH NO SIGNIFICANT WEATHER AND/OR OBSTRUCTIONS TO VISIBILITY

IDZ012-014-260200-
SOUTHWEST IDAHO


CITY           SKY/WX    TMP DP  RH WIND       PRES   REMARKS
BOISE          FAIR      97  28   8 CALM      29.97F HX  91
CALDWELL       FAIR      97  46  17 NW3       29.95F HX  93
MOUNTAIN HOME  FAIR      96  24   7 NE5       29.98F
$$

IDZ016-017-260200-
SOUTHCENTRAL IDAHO


CITY           SKY/WX    TMP DP  RH WIND       PRES   REMARKS
BURLEY         FAIR      86  40  19 N7        30.08F
JEROME         FAIR      90  50  25 NW5       30.08F
TWIN FALLS     FAIR      90  45  21 E8        30.08F
$$

IDZ019>023-260200-
SOUTHEAST IDAHO


CITY           SKY/WX    TMP DP  RH WIND       PRES   REMARKS
IDAHO FALLS    SUNNY     86  37  17 VRB5      30.19F
POCATELLO      SUNNY     87  40  19 NE10      30.15F
REXBURG        SUNNY     82  29  14 SE8       30.20F
$$

IDZ006-010-011-018-031-032-260200-
CENTRAL IDAHO MOUNTAINS


CITY           SKY/WX    TMP DP  RH WIND       PRES   REMARKS
MCCALL         FAIR      83  43  24 W7        30.14F
HAILEY         SUNNY     82  45  26 CALM      30.20F
STANLEY          N/A     84  30  14 MISG      30.25F
SALMON         SUNNY     88  34  14 CALM      30.07F
CHALLIS        FAIR      89  32  13 N7        30.13F
$$

IDZ002-004-006-007-026-260200-
NORTHERN IDAHO


CITY           SKY/WX    TMP DP  RH WIND       PRES   REMARKS
LEWISTON       FAIR      98  45  16 E7        29.88F HX  94
LOWELL           N/A     82  59  45 CALM      29.88F
COEUR D`ALENE  FAIR      91  47  21 NW6       29.99F
MULLAN PASS    FAIR      76  37  24 CALM      30.26F
$$




USA.gov is the U.S. government's official web portal to all federal, state and local government web resources and services.